Location: Acequia del Cap
(41.7000°N, 0.6167°E)
Time: 00:37:11
(UTC+00:00)

Cosmos 482 Debris - Pass Details

Date: 07 August 2020
Orbit: 200 x 2229 km, 52.1° (Epoch: 22 September)

Event Time Altitude Azimuth Distance (km) Brightness Sun altitude
Rises 04:19:02 0° 305° (NW) 3,708 8.3 -7.4°
Reaches altitude 10° 04:22:19 10° 304° (NW) 2,382 7.3 -6.8°
Maximum altitude 04:27:34 79° 218° (SW) 543 4.2 -6.0°
Drops below altitude 10° 04:30:40 10° 132° (SE) 1,431 6.7 -5.5°
Sets 04:32:15 0° 131° (SE) 2,110 7.6 -5.2°
